Showing default

TIANQI 35, 62367

Orbit data source: Space-Track

TIANQI 35, 62367 is a payload satellite owned by Guodian Gaokeji (CN) in LEO that was launched on Thu, 19 Dec 2024 UTC via a GUSHENXING 1 launch vehicle from the Yellow Sea Launch Area, China (YSLA). Payload-class satellites include a variety of spacecraft equipped with specific instruments for various scientific and technological missions. These include communications satellites like Starlink; space stations such as the ISS; scientific satellites like the Hubble; Earth observation satellites from companies like Planet Labs, Umbra, and HawkEye 360; GPS; miniature CubeSats for education and research; and military/defense satellites.

Loading next visibility...
Identifier
62367, 2024-245C
Orbit
LEO
Country
Flag of CNCN / PRC
Related business
Manufacturer
Shanghai ASES
Mission
Operational Commercial Communications
Bus & Motor
STARLIGHTB, Unknown motor
Mass
40 kg wet, ~40 kg dry
Launch date (UTC)
2024-12-19 (2 years ago)
Launch vehicle
GUSHENXING 1
Launch site
Yellow Sea Launch Area, China (YSLA)
Object type
Payload
Rocket body
Debris
Shape & HBR
Box, 0.3 m
Radar Cross Section
0.195 m², Medium (>0.1 m² and < 1m²)

Expand to show TLE details & history
Last TLE update: 10 hours ago

TLE from 10 hours ago
0 TIANQI 35
1 62367U 24245C   26171.41469598  .00000043  00000-0  11774-3 0  9994
2 62367  44.9860 307.3622 0009031  17.6230 342.4914 13.99196068 76790
Epoch: 2026-06-20T09:57Z
TLE epoch observation values (Epoch: 2026-06-20T09:57:09.732Z)
Latitude
-0.00006°
Longitude
-110.55807°
Altitude
890.314 km
Speed
7.412 km/s
True Right ascension
20h 29m 26s
True Declination
0° 00' 00"
Sunlit
Object was in full shadow at epoch
Visualization orbit readout
Latitude
Unknown
Longitude
Unknown
Altitude
Unknown
Speed
Unknown
Apparent Right ascension
Unknown
Apparent Declination
Unknown
Sunlit
N/A
Visualization observer readout
Local Sidereal Time
07:12:29
Azimuth
Unknown
Elevation
Unknown
Doppler factor
Unknown
Orbital elements
Apogee altitude
904.672 km
Perigee altitude
891.53 km
Semi-major axis
7,276.238 km
Eccentricity
0.0009
Inclination
44.986°
RAAN
307.3622°
Arg. of periapsis
17.623°
True anomaly
342.46023°
Mean anomaly
342.4914°
Eccentric anomaly
342.47582°
Mean motion
3.4969 °/min
Orbital period
102.95 mins
BSTAR
0.00011774
Loading maneuver chart data...
Computing Atmospheric mass density...
Loading historical data...
Loading historical data...
Loading historical data...
Loading historical data...
Loading historical data...
Loading historical data...
Loading historical data...
Other satellites on launch #245 in the year 2024 (2024-12-19 UTC)

Documentation

Showing up to 5 results
|